Location: Ida Center
(41.8662°N, 83.5713°W)
Time: 08:53:50
(UTC+00:00)

PSLV R/B - Pass Details

Date: 17 November 2019
Orbit: 274 x 280 km, 41.0° (Epoch: 05 December)

Event Time Altitude Azimuth Distance (km) Brightness Sun altitude
Rises 22:44:05 0° 273° (W) 1,964 8.1 -6.3°
Reaches altitude 10° 22:46:03 10° 270° (W) 1,139 6.8 -6.7°
Maximum altitude 22:48:35 64° 188° (S) 321 2.8 -7.1°
Drops below altitude 10° 22:51:04 10° 105° (ESE) 1,124 4.9 -7.6°
Enters shadow 22:51:26 - 104° (ESE) 1,272 5.2 -7.6°
